Theta_e
334 335 336 337 337 337 336 335 334 332 334 334 335 335 336 336 335 333 334 334 333 333 334 335 335 336 336 334 333 333 331 332 333 335 334 335 336 335 334 333 333 333 333
334 336 337 335 335 336 335 332 332 331 333 332 333 333 334 335 335 333 331 331 331 332 333 334 334 334 333 332 329 328 329 329 329 329 331 332 332 334 333 332 331 332 332
335 337 334 333 335 336 334 330 331 332 333 334 333 332 332 332 332 331 330 329 330 331 331 332 332 332 330 329 327 326 326 327 327 329 329 330 331 331 331 330 330 329 328
333 331 331 332 334 336 332 329 331 330 331 334 335 332 331 331 329 330 330 329 329 329 330 330 331 330 328 328 327 325 325 324 324 324 326 327 327 330 329 328 328 327 326
332 332 331 332 335 335 330 326 330 328 331 334 336 332 330 329 330 329 329 328 329 328 329 330 331 328 326 328 325 324 323 323 323 325 327 328 329 329 328 325 324 323 322
329 331 332 334 335 335 330 322 330 331 331 333 333 333 330 329 330 329 327 328 326 327 328 330 329 324 324 325 324 323 322 321 321 323 323 323 326 328 327 326 325 321 322
329 331 332 332 335 334 328 320 327 330 328 330 330 329 328 325 327 328 329 329 328 327 328 328 326 323 322 323 323 322 322 321 320 318 316 319 323 325 326 324 323 323 321
327 332 332 332 335 333 329 323 319 328 327 329 329 327 327 326 324 326 326 326 328 327 324 322 322 321 320 322 323 322 321 321 320 319 317 322 324 325 323 323 322 321 320
325 331 331 335 335 334 330 326 319 324 328 325 324 325 327 327 327 325 324 324 327 324 319 319 320 320 318 321 321 321 321 321 320 319 316 316 318 322 322 321 320 319 318
327 331 331 334 335 334 331 329 323 319 320 319 319 320 327 328 327 325 323 322 323 322 320 318 317 317 319 321 321 321 320 320 320 319 318 316 317 321 320 320 319 318 316
326 328 328 331 333 332 331 329 325 320 318 319 318 318 325 327 327 325 324 323 322 322 321 319 318 318 317 319 321 321 320 320 320 319 319 318 317 318 318 316 315 316 315
326 325 325 326 329 330 329 328 325 320 318 318 318 318 318 320 322 324 323 320 319 319 320 320 319 321 320 320 321 321 321 321 320 320 319 319 319 318 318 317 316 316 316
324 324 324 323 324 326 327 328 324 322 320 323 324 323 323 324 322 319 318 318 316 317 316 318 319 318 318 319 319 320 321 321 321 321 320 319 319 319 320 321 320 319 318
325 323 323 322 324 324 326 326 326 324 321 325 326 325 324 323 323 322 318 320 318 320 318 317 317 317 317 317 317 317 318 320 320 320 320 320 320 319 320 322 322 322 322
327 326 323 323 323 323 324 324 325 324 325 324 326 326 325 324 321 324 324 323 323 321 320 320 319 318 318 317 318 318 319 319 319 319 320 320 320 320 320 321 323 323 323
331 331 329 328 329 329 325 323 323 324 327 328 328 328 327 325 323 324 324 324 324 323 322 321 320 320 320 319 319 319 318 318 318 318 318 318 318 319 319 319 320 323 323
333 332 332 332 331 331 330 329 327 329 329 329 329 329 329 327 325 325 324 324 324 323 323 322 322 321 321 321 320 320 320 319 320 320 320 320 320 319 318 318 318 318 321
334 333 333 333 332 331 331 331 330 330 330 330 329 329 329 328 326 325 325 325 324 324 323 323 323 322 322 322 321 321 321 322 323 322 322 322 321 320 320 319 319 318 317
335 334 334 333 332 332 332 331 331 331 331 330 329 328 328 327 327 327 326 325 325 324 324 324 323 322 322 321 322 324 324 324 323 322 322 320 320 320 320 319 319 318 318
333 334 334 334 334 333 332 331 331 332 331 331 330 329 328 327 326 326 327 327 326 325 325 324 324 323 322 323 324 325 324 322 319 321 320 320 319 316 318 317 317 316 317
331 332 334 334 334 334 334 333 332 331 331 331 331 330 330 328 327 327 328 328 328 327 327 326 325 324 324 323 322 323 321 320 320 319 318 317 317 316 316 313 314 312 313
329 330 332 334 334 334 334 334 334 332 328 328 328 329 329 328 328 328 329 329 329 330 329 327 326 324 323 323 322 318 314 318 318 318 316 317 315 314 313 313 311 312 311
325 328 331 333 334 334 333 333 332 330 328 327 328 328 328 328 328 329 328 328 328 329 329 327 326 324 321 322 321 319 317 316 314 315 314 315 311 312 310 311 308 308 307
321 326 330 332 333 333 333 333 331 330 329 327 326 327 328 329 329 328 327 326 327 327 327 326 324 323 322 320 318 316 315 315 313 313 312 310 311 307 307 303 303 299 301
310 313 319 325 331 332 332 333 332 331 328 325 326 328 329 328 327 326 326 326 326 325 325 323 321 320 318 316 315 313 313 310 311 308 308 306 305 304 303 304 301 301 302
312 312 311 310 317 330 332 332 331 331 327 326 326 327 326 326 325 325 324 323 322 321 318 316 315 314 312 311 310 309 309 308 307 306 305 303 301 301 298 300 299 301 304
Wind_Speed
14 13 12 13 14 14 15 16 16 15 16 16 15 15 15 16 16 17 19 22 18 18 16 19 20 21 22 21 21 21 21 21 21 21 21 20 20 20 19 18 19 18 17
20 16 13 13 14 16 16 17 16 17 17 16 17 16 16 16 16 18 18 19 17 15 17 18 21 21 22 21 22 22 23 23 21 19 19 20 17 18 17 16 15 16 16
21 19 14 14 15 16 15 18 18 19 17 16 18 18 18 17 17 18 19 19 17 18 18 19 19 19 19 20 20 21 20 19 20 21 20 18 17 16 16 16 17 16 16
21 17 16 15 16 16 14 18 20 19 18 16 17 18 17 19 18 18 19 19 19 18 18 18 18 18 18 18 18 18 17 17 16 14 14 14 13 15 15 15 15 15 15
19 18 18 18 19 16 14 17 19 17 18 17 18 18 18 17 18 19 19 17 17 17 17 17 17 18 17 16 16 16 14 14 14 15 16 15 15 13 14 14 14 13 13
19 17 17 19 19 17 14 16 18 17 16 16 17 17 16 17 19 19 17 17 16 15 14 15 16 17 17 15 14 14 13 13 11 10 10 10 11 11 11 12 12 10 10
20 18 17 18 18 17 15 15 17 16 14 16 16 16 15 17 18 17 15 15 14 14 13 13 15 15 15 14 12 12 13 13 13 12 10 9 10 8 9 10 10 10 9
21 19 18 18 18 16 16 15 16 16 14 14 15 16 14 15 15 16 14 13 13 13 13 13 13 12 12 12 10 10 10 11 12 13 12 9 9 9 9 9 8 8 8
21 20 19 20 19 16 14 13 14 15 14 14 14 14 13 14 14 12 11 11 11 11 11 12 11 9 9 10 10 9 9 10 12 14 12 9 8 8 7 7 7 7 6
21 20 19 20 22 16 13 12 12 13 13 13 13 13 13 13 12 11 10 9 8 8 8 9 9 8 8 7 8 9 8 8 10 12 13 13 10 8 7 6 6 5 4
20 20 20 21 21 19 15 13 12 12 12 12 12 12 12 12 10 8 7 6 4 4 5 5 6 6 6 4 5 6 7 7 8 9 11 12 12 9 7 7 6 4 4
23 22 22 20 20 20 17 16 14 13 12 12 11 12 11 10 8 6 5 3 3 3 2 2 3 4 4 4 3 6 5 7 8 9 10 10 11 11 10 10 8 6 6
27 24 23 22 20 20 20 16 15 14 13 13 11 10 9 8 7 6 5 3 3 3 3 2 1 3 4 3 4 5 5 7 8 9 9 10 10 10 9 10 9 9 9
27 26 23 22 20 19 18 18 15 14 13 13 10 8 8 6 5 4 4 3 2 2 3 2 1 4 5 5 6 7 7 8 10 11 12 12 13 13 12 11 12 13 13
28 26 25 22 21 18 18 17 16 15 13 11 10 8 7 5 5 5 3 2 1 1 2 2 3 4 5 6 7 9 9 11 12 13 14 15 17 17 17 17 15 16 17
29 28 25 24 21 19 18 18 17 16 14 13 11 9 7 6 6 5 4 3 2 2 2 4 4 5 7 9 9 11 12 13 15 16 17 18 19 20 22 22 21 20 20
31 29 28 26 24 23 21 19 18 16 15 13 11 9 7 7 7 6 6 5 4 4 5 6 7 9 10 11 13 15 16 16 18 19 20 21 22 23 23 24 25 25 23
31 31 30 29 28 26 24 21 18 17 15 13 10 9 8 7 8 8 8 7 7 7 8 9 11 12 13 14 16 17 18 19 19 20 22 21 21 22 22 22 22 22 23
34 33 33 32 30 28 26 23 20 19 17 15 14 12 11 9 8 9 10 9 9 9 9 9 10 13 15 15 16 19 20 20 19 22 19 17 17 22 18 21 20 21 22
35 35 35 35 33 29 27 26 22 18 19 18 15 15 13 12 11 10 10 10 11 12 12 12 13 13 15 16 19 22 20 20 22 14 16 14 18 21 19 18 20 23 23
36 38 38 38 37 34 30 28 27 25 20 19 17 16 15 14 13 13 13 13 12 13 13 11 12 13 16 12 16 16 22 15 14 13 20 23 18 17 19 26 22 27 27
37 38 39 41 40 38 37 34 31 27 23 22 20 19 17 16 16 16 15 14 14 13 14 13 12 12 13 8 6 5 4 11 1 19 18 13 15 21 21 21 28 24 25
33 36 38 39 40 39 36 33 27 23 21 20 20 19 18 17 16 15 13 12 10 9 11 11 11 10 10 6 6 2 2 2 12 12 24 10 26 17 24 22 24 24 27
26 29 32 35 37 36 36 34 31 24 20 18 20 19 16 15 14 11 10 9 8 7 4 3 3 2 2 4 5 2 4 6 2 4 6 27 11 27 24 26 28 28 25
17 20 23 26 31 33 35 35 33 27 22 15 15 12 13 11 10 9 8 7 6 4 4 2 1 0 2 4 5 7 9 14 9 5 8 10 21 20 22 19 22 21 21
16 16 19 21 24 30 34 36 33 30 24 21 20 16 14 12 10 8 7 7 6 5 3 1 1 1 2 2 1 3 5 4 9 7 9 20 19 13 25 9 18 14 15
Wind_Direction
154 140 140 124 116 108 101 99 100 95 91 91 89 92 93 92 87 91 87 84 86 88 88 81 76 75 76 76 74 73 73 74 77 80 80 77 73 72 73 72 68 64 62
148 146 131 126 122 117 106 101 105 107 102 97 95 92 93 92 89 88 96 94 81 86 85 83 81 79 79 78 75 75 76 75 75 73 72 72 66 63 63 61 60 56 53
146 142 136 132 128 116 107 109 107 104 106 104 96 90 90 94 90 87 87 89 83 89 90 90 88 81 81 84 78 75 76 77 75 73 71 69 69 65 62 59 60 58 54
147 148 145 138 132 124 112 115 117 112 108 103 106 94 95 94 94 89 90 91 91 89 92 92 86 81 85 86 81 79 78 75 72 74 78 70 63 66 63 63 61 58 59
149 148 145 143 139 132 118 117 118 113 116 102 111 100 96 95 97 97 97 94 93 93 93 91 86 81 86 89 79 73 66 66 67 71 78 75 69 64 61 56 57 54 56
149 150 148 145 143 134 120 120 124 120 114 110 105 105 97 101 102 97 95 97 96 94 98 97 88 85 86 90 84 78 67 57 60 69 64 65 63 56 54 53 53 38 44
147 150 152 149 146 136 126 125 131 123 123 123 117 112 101 102 109 107 106 100 97 95 94 97 92 86 81 85 86 77 64 55 57 54 39 49 56 49 43 45 43 44 43
152 155 151 148 149 141 130 124 130 129 130 128 127 122 115 104 107 106 104 97 96 98 94 107 105 88 80 78 80 70 57 58 53 43 48 62 59 45 39 39 40 43 45
157 159 156 149 152 144 134 128 127 134 135 134 130 129 119 122 118 104 100 98 103 100 97 101 106 96 79 79 68 60 55 52 39 36 41 38 29 36 38 38 41 40 36
161 164 158 152 152 152 145 138 134 137 136 135 133 134 128 130 124 112 102 97 102 102 101 98 96 93 91 87 64 50 45 39 35 31 33 31 31 37 37 32 25 24 23
165 170 166 164 160 160 159 153 147 142 141 140 136 135 137 131 130 120 104 95 87 98 94 89 87 83 80 84 65 37 28 25 19 20 21 20 18 16 14 8 2 357 347
172 175 174 173 174 169 169 163 158 150 149 146 143 137 135 137 141 141 129 105 83 96 107 116 96 79 55 64 41 18 19 5 6 1 1 5 1 358 355 350 345 335 320
177 178 180 177 179 177 171 170 163 162 158 154 150 147 144 143 136 149 151 136 101 92 62 98 114 20 20 19 16 5 350 344 340 343 344 339 338 338 332 324 314 311 307
183 182 182 182 185 183 181 177 178 175 172 171 167 168 164 156 150 136 144 132 116 102 66 71 16 338 350 354 350 346 338 330 322 323 323 322 320 316 312 306 305 303 300
186 188 186 187 188 190 190 187 189 186 184 183 185 180 182 177 179 177 169 175 151 35 8 5 350 337 339 335 330 328 326 322 318 315 314 314 313 311 309 304 298 298 300
189 193 188 190 192 192 195 196 197 197 193 195 198 196 197 207 210 215 218 228 252 296 311 320 316 322 325 321 319 316 314 312 309 309 311 311 311 310 308 308 302 295 295
195 197 196 195 197 199 199 202 202 200 202 207 209 208 219 227 228 229 236 240 235 265 286 295 304 306 311 310 309 310 309 311 315 316 316 312 312 312 307 307 306 304 295
202 200 203 202 203 206 208 206 208 208 207 206 208 216 227 239 237 248 257 258 259 268 279 290 300 300 301 305 309 314 310 315 314 317 313 316 315 320 318 319 317 317 305
209 207 207 206 207 209 212 212 210 211 213 216 217 225 224 229 242 256 258 263 262 264 268 274 284 293 301 307 313 314 315 317 320 320 319 326 335 331 335 332 330 330 328
215 215 213 211 211 211 213 212 210 215 214 214 216 216 225 234 238 247 256 260 261 265 270 276 283 291 300 313 319 315 320 321 320 319 328 331 336 339 332 335 331 326 323
220 219 218 213 213 211 206 203 206 212 222 220 225 228 226 230 236 246 255 262 266 271 280 281 288 295 303 312 323 326 318 320 319 314 333 323 331 338 336 329 330 326 320
221 220 221 220 216 213 214 213 213 219 224 231 234 235 238 238 241 245 249 257 261 265 272 276 289 293 298 317 325 311 329 322 329 314 321 318 326 332 329 331 327 326 324
215 216 218 219 218 215 213 214 213 216 216 224 228 232 233 235 240 241 252 264 266 264 265 270 280 293 289 310 333 306 326 262 337 326 320 330 326 330 329 325 328 327 324
206 208 214 217 218 217 213 211 205 204 199 222 228 230 234 236 231 233 237 245 252 256 249 251 243 283 266 306 350 336 306 307 314 317 331 311 320 324 320 327 325 330 333
201 199 204 211 216 218 215 213 206 208 211 216 220 209 204 205 212 216 219 222 216 196 182 220 184 290 340 13 355 328 333 333 311 291 305 311 309 306 311 310 315 327 330
211 217 212 209 209 213 215 212 209 208 204 192 189 190 181 177 176 170 167 160 162 169 187 302 309 312 41 59 23 13 11 346 326 325 311 312 307 316 314 343 324 332 326